Theta_e
343 346 347 347 346 345 347 348 346 348 347 347 347 346 345 344 348 346 348 349 348 349 344 346 347 349 349 349 348 347 346 344 343 342 344 347 347 347
336 338 340 344 345 347 345 345 346 346 349 348 347 346 344 346 349 349 349 345 347 346 346 341 340 347 349 349 349 349 348 347 346 343 342 343 344 347
331 338 336 340 342 344 344 345 344 344 345 344 344 345 346 345 345 346 347 347 346 345 346 345 344 345 348 347 349 349 348 348 347 346 344 343 343 343
330 335 333 337 335 336 341 342 342 343 343 342 343 342 343 343 343 344 346 346 346 345 341 344 346 346 344 347 348 349 350 349 348 348 347 346 344 344
332 332 333 332 334 336 337 338 342 342 343 344 343 343 344 343 344 344 343 343 344 345 345 343 341 341 343 342 346 343 350 350 349 349 349 348 346 345
333 329 330 333 333 335 335 334 337 341 342 342 342 342 341 341 342 342 342 340 341 342 344 345 341 343 347 348 343 347 348 349 349 348 348 348 347 346
328 327 330 327 328 327 327 330 336 339 340 340 340 341 341 341 341 341 341 341 340 341 343 345 346 346 347 347 349 349 350 349 349 349 348 347 347 347
322 323 325 327 326 325 325 325 324 326 332 339 340 339 340 341 341 341 342 342 340 343 343 344 345 345 346 348 347 348 347 347 349 349 348 348 347 346
313 316 317 324 323 321 322 323 324 325 324 325 331 338 337 331 328 337 341 342 343 343 344 344 340 343 343 343 345 347 347 347 348 348 348 345 345 346
310 310 312 313 314 314 313 314 316 320 322 321 322 323 327 326 325 326 333 342 342 342 345 343 342 341 340 340 344 345 346 345 345 344 343 348 348 344
309 310 311 311 313 316 315 315 317 318 317 317 318 320 321 323 325 326 329 339 340 341 342 343 342 342 341 340 338 343 345 345 345 342 342 342 347 348
308 310 310 309 310 312 312 314 314 318 320 323 324 325 324 324 325 328 331 338 339 339 341 343 342 342 338 340 339 338 339 342 343 342 343 342 346 347
307 308 309 307 306 308 308 309 311 315 319 323 324 324 325 327 330 332 334 336 338 339 338 340 342 341 341 340 342 342 341 340 340 341 341 340 343 346
307 307 306 306 305 305 306 306 307 311 312 316 316 320 324 326 329 330 331 331 333 336 338 338 338 341 341 339 339 342 342 341 341 341 341 340 342 344
306 306 305 305 304 304 304 305 304 306 307 308 309 312 315 322 325 327 327 328 329 333 337 336 336 338 338 339 339 341 340 339 341 341 341 340 341 342
305 305 304 304 304 304 303 303 303 304 304 304 305 308 311 314 318 322 322 325 329 330 333 335 336 335 336 337 338 339 339 341 341 341 341 341 340 339
305 305 305 305 304 303 303 303 303 303 303 302 303 304 305 309 314 319 322 324 328 329 330 330 332 333 335 335 336 337 336 337 337 338 341 342 339 337
305 304 304 304 304 303 303 303 302 302 302 302 302 302 304 306 307 311 318 320 323 325 324 324 327 331 332 333 334 335 336 336 337 337 338 339 341 341
304 304 303 304 304 303 303 303 302 302 301 302 302 302 303 303 306 309 312 315 317 318 319 320 323 328 331 332 331 332 334 335 335 336 335 336 338 339
306 304 303 304 304 304 304 304 304 302 301 301 301 301 302 302 303 304 306 309 314 316 317 317 319 323 326 326 327 328 331 332 334 335 335 335 336 337
308 306 306 305 305 304 304 304 304 303 302 301 301 301 301 302 302 302 303 305 308 310 313 314 316 318 318 320 327 330 330 329 332 333 334 335 335 336
311 310 308 307 307 306 305 304 304 304 303 302 301 301 301 301 301 301 301 302 303 305 309 312 312 314 317 320 324 326 329 330 332 333 333 334 335 331
313 312 310 310 308 308 307 306 304 304 304 303 302 301 301 301 301 300 300 300 301 303 305 307 308 312 314 316 321 324 327 330 331 331 333 333 333 334
Wind_Speed
19 17 16 14 11 8 5 13 11 3 3 6 9 12 14 16 20 19 17 17 19 22 25 29 31 34 34 41 44 45 42 40 38 37 35 33 32 33
19 19 18 16 13 11 9 7 9 11 3 5 15 14 18 19 19 18 19 26 27 29 34 28 30 33 34 33 42 45 46 46 43 41 36 34 33 33
20 20 22 18 15 14 13 12 11 9 5 13 19 19 18 18 21 20 19 20 20 25 27 30 32 35 29 29 34 36 41 48 47 45 42 38 36 34
21 20 21 17 18 18 15 15 15 13 11 11 20 18 19 18 18 16 16 18 21 25 28 28 24 32 37 27 32 33 36 40 45 47 46 43 41 39
20 21 21 22 23 17 17 17 15 14 11 12 16 17 17 15 15 16 17 17 17 19 25 29 30 31 35 33 32 30 34 38 39 43 47 46 43 42
18 19 21 22 22 20 20 20 20 16 13 12 14 18 17 17 15 15 19 17 18 18 21 24 27 24 25 31 31 27 25 37 33 35 38 44 44 43
16 20 19 18 20 19 21 22 21 19 18 16 15 13 17 17 16 17 17 21 24 22 22 24 25 26 27 27 27 26 25 30 30 31 34 37 41 42
21 21 19 18 18 19 21 20 19 19 19 12 10 13 14 16 18 20 19 12 4 11 10 12 12 20 23 24 24 27 24 20 27 29 29 32 35 39
20 20 20 15 20 27 28 26 24 21 17 17 16 16 15 22 24 20 19 17 15 23 19 16 16 17 18 21 23 23 21 22 23 27 27 28 32 36
21 22 20 20 22 27 29 30 30 28 27 26 22 22 24 26 24 25 24 23 23 26 20 9 16 21 19 18 18 22 21 21 23 22 20 20 26 32
26 27 23 27 28 27 27 27 28 29 26 24 23 25 26 26 25 24 24 16 10 17 18 14 16 19 21 22 19 21 26 24 22 24 26 23 21 25
27 27 28 31 29 28 30 28 26 32 29 27 25 26 23 23 21 20 21 17 15 6 11 12 14 8 5 9 17 22 24 25 24 20 19 17 23 24
26 27 28 30 31 25 24 24 24 24 25 24 25 25 23 23 22 20 16 18 19 18 25 13 8 7 7 6 9 12 15 20 24 24 19 20 21 24
31 29 27 28 28 27 26 26 26 22 22 20 23 21 24 26 26 23 19 19 19 23 25 22 15 19 14 5 6 9 14 18 22 24 24 23 24 23
27 28 26 26 28 30 25 24 25 24 23 22 21 21 25 25 24 23 20 16 16 16 18 24 24 23 23 18 9 9 11 16 21 25 24 25 25 26
20 23 21 22 21 22 28 29 24 21 22 21 23 24 24 24 24 24 26 26 18 17 14 17 22 22 22 25 25 21 23 12 10 17 19 23 23 24
17 23 27 25 23 22 23 23 24 24 22 22 20 22 24 23 22 24 23 23 15 15 18 17 13 14 18 22 19 24 25 23 21 23 18 18 21 28
13 15 17 19 18 20 19 20 21 22 22 24 22 21 22 23 25 25 20 16 14 15 15 21 22 15 11 15 18 23 22 23 24 22 21 19 21 24
10 9 8 12 13 15 16 19 19 22 22 20 20 20 19 21 22 22 21 18 16 18 19 20 18 12 5 5 11 13 20 24 25 24 25 23 21 23
20 15 11 9 11 13 14 17 22 22 21 21 21 20 20 18 18 18 20 20 17 17 18 18 16 12 6 7 9 24 20 21 23 24 25 23 21 23
30 23 18 15 14 14 15 16 19 20 23 21 21 21 21 20 19 19 20 21 21 18 17 18 18 18 22 20 11 15 23 19 20 27 25 20 17 11
32 31 25 22 21 21 21 19 20 23 22 21 20 21 22 21 21 21 21 21 20 20 21 21 23 20 16 14 13 16 19 21 16 21 27 27 14 4
29 30 26 25 25 25 26 27 27 29 27 25 24 22 23 23 23 23 24 23 23 22 21 22 22 19 19 18 20 18 17 21 20 16 17 16 17 19
Wind_Direction
16 6 358 3 358 336 303 237 219 250 264 294 254 238 261 291 259 266 261 274 267 261 274 265 267 269 262 254 250 243 242 244 243 241 240 240 243 246
15 12 10 3 353 336 321 305 260 239 276 234 243 261 264 270 258 261 262 288 279 265 267 268 256 268 265 258 252 255 244 243 242 242 240 241 242 243
12 13 15 6 356 347 333 317 299 276 239 276 282 287 268 279 271 260 260 250 261 255 252 257 262 266 260 270 263 256 255 243 242 243 240 240 241 243
5 6 6 7 6 6 345 319 312 307 269 275 297 293 283 285 279 268 259 262 266 251 248 251 248 249 251 263 264 258 255 247 247 247 242 239 238 239
6 3 7 2 358 358 358 359 337 304 291 272 291 300 294 296 293 293 292 284 272 272 256 253 250 249 257 260 262 270 262 250 245 247 245 240 238 238
359 7 7 11 6 359 352 352 347 335 303 289 287 297 302 308 298 288 292 293 292 283 274 263 253 256 261 271 252 259 254 254 243 244 244 242 239 239
13 12 18 5 3 10 10 360 358 347 333 316 295 292 302 309 310 312 297 300 299 291 278 265 255 256 263 263 257 254 258 238 236 237 238 239 239 238
3 358 9 352 357 355 355 355 355 359 354 340 328 308 304 312 316 311 304 298 302 295 277 281 254 254 261 260 260 256 259 262 246 234 238 239 237 236
2 2 355 348 347 345 336 331 329 328 334 333 327 321 319 321 324 310 289 281 269 286 282 273 273 263 257 260 254 249 249 258 248 232 235 238 236 233
17 10 7 360 351 345 334 324 318 313 312 315 311 305 301 304 309 305 301 285 285 289 276 247 263 265 275 268 255 251 242 243 246 234 233 248 241 234
19 16 7 2 359 359 355 345 335 325 317 310 305 301 296 294 297 305 298 278 275 276 283 242 258 268 276 272 260 249 242 248 241 243 246 255 257 238
17 17 13 4 357 358 359 357 343 336 329 322 319 313 309 306 298 299 296 270 263 283 277 220 255 245 289 273 255 254 245 233 239 243 245 258 243 233
10 5 7 1 358 2 360 356 344 345 347 347 343 335 330 320 318 318 317 292 260 254 267 258 242 226 229 273 282 271 243 235 234 243 249 253 254 244
23 12 3 357 357 3 3 355 358 354 355 353 354 347 340 335 332 323 313 306 298 277 271 262 254 250 238 251 257 264 254 246 239 242 244 240 236 245
37 31 19 11 9 4 357 357 1 358 355 355 343 333 334 329 340 349 339 327 321 304 274 261 258 257 255 248 255 261 280 266 252 252 252 240 237 237
31 30 22 18 12 1 359 0 358 354 351 345 333 329 330 330 334 340 342 342 340 327 304 269 259 256 256 258 257 256 263 254 264 262 257 242 237 234
20 24 24 17 10 7 1 351 348 349 344 338 335 332 330 324 328 328 333 341 331 337 329 326 313 286 272 265 252 259 263 264 264 266 264 255 255 238
3 14 19 19 4 360 359 351 343 339 335 330 330 330 329 330 327 323 327 340 334 341 343 340 346 343 306 279 259 257 258 260 268 264 260 255 257 261
313 329 351 8 2 360 354 0 338 334 330 325 322 325 325 324 326 320 315 319 321 321 319 324 336 349 326 289 290 289 264 266 268 267 264 258 249 256
276 278 299 337 352 355 350 357 358 346 333 327 325 320 321 319 316 315 312 319 319 306 296 306 315 315 329 309 303 295 285 276 269 264 267 269 264 266
282 277 282 298 311 320 323 333 337 347 349 330 324 323 317 313 311 311 310 309 308 298 300 296 295 297 300 306 281 269 282 286 273 258 260 259 260 258
284 280 282 292 296 300 304 305 314 321 334 334 322 316 314 311 302 301 301 297 294 290 288 286 292 296 291 278 274 284 284 296 285 259 255 253 240 214
291 289 285 289 292 298 297 298 300 304 311 320 320 315 314 307 303 294 289 285 282 280 278 279 278 274 277 269 266 279 283 280 278 271 268 262 261 256